1484017200.19,60940,4.13,72592.0,-16.49,-48.41,-48.77,0,*64
1484017201.44,60941,4.19,72596.3,-16.49,-48.41,-48.77,0,*65
1484017202.69,60942,4.13,72594.0,-16.49,-48.41,-48.69,0,*69
1484017203.91,60943,4.13,72596.5,-16.49,-48.07,-48.41,0,*60
1484017205.15,60944,4.19,72600.3,-16.49,-48.27,-48.41,0,*65
1484017206.4,60945,4.13,72594.3,-16.51,-47.99,-48.41,0,*67
1484017207.65,60946,4.19,72598.0,-16.49,-47.99,-48.27,0,*6D
1484017208.91,60947,4.19,72596.8,-16.45,-47.93,-48.35,0,*69
1484017210.18,60948,4.13,72596.5,-16.49,-48.27,-48.69,0,*63
1484017211.43,60949,4.13,72594.0,-16.49,-48.41,-48.69,0,*62
1484017212.68,60950,4.13,72594.5,-16.45,-48.13,-48.63,0,*6B
1484017213.9,60951,4.13,72598.5,-16.49,-48.21,-48.49,0,*6F
1484017215.14,60952,4.13,72592.5,-16.49,-47.79,-47.99,0,*6C
1484017216.35,60953,4.13,72594.0,-16.45,-47.57,-47.99,0,*6D
1484017217.6,60954,4.19,72596.0,-16.49,-47.85,-48.27,0,*63
1484017218.83,60955,4.13,72596.0,-16.45,-47.85,-48.21,0,*68
1484017220.07,60956,4.19,72596.8,-16.45,-47.79,-48.21,0,*68
1484017221.34,60957,4.13,72596.5,-16.45,-47.93,-48.13,0,*6C
1484017222.61,60958,4.13,72598.3,-16.45,-47.79,-48.13,0,*67
1484017223.86,60959,4.19,72602.0,-16.45,-48.13,-48.63,0,*62
1484017225.1,60960,4.13,72596.3,-16.45,-47.93,-48.21,0,*69
1484017226.37,60961,4.13,72594.8,-16.45,-48.13,-48.35,0,*6A
1484017227.62,60962,4.13,72600.3,-16.45,-47.93,-48.21,0,*6B
1484017228.86,60963,4.13,72602.3,-16.45,-47.71,-48.21,0,*66
1484017230.1,60964,4.13,72594.0,-16.45,-47.93,-48.21,0,*6D
1484017231.34,60965,4.13,72594.8,-16.45,-48.13,-48.41,0,*6D
1484017232.61,60966,4.13,72596.5,-16.45,-47.93,-48.35,0,*6A
1484017233.87,60967,4.13,72600.8,-16.45,-48.35,-48.69,0,*61
1484017235.12,60968,4.13,72602.0,-16.45,-48.21,-48.35,0,*62
1484017236.36,60969,4.13,72598.3,-16.45,-47.93,-48.21,0,*60
1484017237.61,60970,4.13,72596.5,-16.45,-47.93,-48.21,0,*68
1484017238.88,60971,4.13,72600.0,-16.43,-47.99,-48.35,0,*60
1484017240.17,60972,4.13,72600.3,-16.43,-48.13,-48.35,0,*6E
1484017241.42,60973,4.13,72596.5,-16.41,-47.85,-48.13,0,*69
1484017242.67,60974,4.13,72596.3,-16.41,-47.85,-48.27,0,*69
1484017243.94,60975,4.19,72600.5,-16.43,-47.93,-48.21,0,*6B
1484017245.21,60976,4.13,72596.3,-16.43,-47.99,-48.35,0,*67
1484017246.51,60977,4.13,72598.3,-16.43,-47.79,-48.13,0,*6C
1484017247.8,60978,4.19,72600.5,-16.43,-47.71,-48.13,0,*6B
1484017249.05,60979,4.13,72604.0,-16.41,-47.85,-48.13,0,*63
1484017250.3,60980,4.13,72604.8,-16.41,-47.85,-48.27,0,*62
1484017251.57,60981,4.13,72596.8,-16.41,-47.93,-48.27,0,*64
1484017252.83,60982,4.19,72598.5,-16.41,-47.71,-47.93,0,*6B
1484017254.11,60983,4.19,72596.8,-16.41,-48.13,-48.13,0,*66
1484017255.35,60984,4.13,72602.3,-16.41,-47.85,-48.13,0,*61
1484017256.63,60985,4.13,72596.5,-16.43,-47.93,-48.21,0,*64
1484017257.89,60986,4.13,72598.3,-16.41,-47.71,-48.13,0,*68
1484017259.11,60987,4.13,72596.8,-16.41,-47.65,-48.07,0,*69
1484017260.34,60988,4.13,72596.3,-16.41,-47.85,-48.07,0,*68
1484017261.61,60989,4.13,72590.3,-16.41,-47.93,-48.35,0,*6F
1484017262.91,60990,4.19,72602.3,-16.43,-47.93,-48.13,0,*61
1484017264.16,60991,4.19,72598.8,-16.41,-48.13,-48.63,0,*62
1484017265.43,60992,4.19,72602.8,-16.41,-47.93,-48.27,0,*66
1484017266.68,60993,4.13,72598.5,-16.41,-48.07,-48.27,0,*65
1484017267.95,60994,4.13,72602.5,-16.41,-47.93,-48.27,0,*60
1484017269.21,60995,4.13,72602.5,-16.41,-47.71,-48.13,0,*6A
1484017270.46,60996,4.13,72598.0,-16.41,-47.85,-48.27,0,*65
1484017271.71,60997,4.19,72600.5,-16.41,-48.07,-48.35,0,*62
1484017272.99,60998,4.19,72596.8,-16.41,-48.13,-48.35,0,*68
1484017274.23,60999,4.19,72600.8,-16.41,-48.27,-48.63,0,*6D
1484017275.48,61000,4.19,72596.3,-16.41,-48.07,-48.35,0,*64
1484017276.75,61001,4.19,72602.5,-16.41,-48.13,-48.35,0,*60
1484017278.03,61002,4.19,72598.3,-16.39,-48.07,-48.35,0,*69
1484017279.32,61003,4.13,72598.3,-16.39,-47.93,-48.27,0,*69
1484017280.61,61004,4.19,72602.8,-16.39,-48.13,-48.55,0,*6C
1484017281.9,61005,4.13,72596.8,-16.39,-47.93,-48.35,0,*6C
1484017283.2,61006,4.19,72598.8,-16.39,-48.13,-48.35,0,*68
1484017284.46,61007,4.19,72598.3,-16.39,-48.35,-48.97,0,*65
1484017285.74,61008,4.19,72598.5,-16.39,-48.13,-48.63,0,*65
1484017287.01,61009,4.19,72596.0,-16.41,-48.27,-48.77,0,*69
1484017288.23,61010,4.13,72600.0,-16.41,-48.41,-48.83,0,*6A
1484017289.46,61011,4.19,72600.8,-16.41,-48.35,-48.83,0,*68
1484017290.71,61012,4.13,72602.8,-16.41,-48.27,-48.55,0,*63
1484017291.97,61013,4.13,72598.0,-16.41,-48.13,-48.55,0,*65
1484017293.24,61014,4.13,72598.5,-16.41,-48.13,-48.27,0,*67
1484017294.49,61015,4.13,72602.3,-16.41,-48.27,-48.63,0,*61
1484017295.76,61016,4.13,72596.0,-16.39,-48.27,-48.63,0,*6D
1484017297.01,61017,4.13,72602.5,-16.41,-48.07,-48.13,0,*66
1484017298.26,61018,4.13,72598.8,-16.41,-48.13,-48.63,0,*6B
1484017299.51,61019,4.13,72598.8,-16.41,-48.27,-48.63,0,*6D
1484017300.78,61020,4.13,72598.0,-16.41,-47.93,-48.13,0,*60
1484017302.03,61021,4.13,72596.0,-16.41,-47.93,-48.55,0,*63
1484017303.3,61022,4.19,72600.8,-16.41,-47.93,-48.13,0,*62
1484017304.57,61023,4.13,72596.5,-16.41,-48.13,-48.35,0,*60
1484017305.85,61024,4.13,72596.0,-16.41,-47.93,-48.13,0,*64
1484017307.11,61025,4.13,72596.0,-16.41,-47.93,-48.27,0,*62
1484017308.38,61026,4.19,72600.5,-16.41,-47.71,-48.13,0,*6A
1484017309.63,61027,4.13,72594.3,-16.39,-47.85,-48.21,0,*6E
1484017310.91,61028,4.13,72592.5,-16.39,-47.85,-48.13,0,*60
1484017312.16,61029,4.13,72594.3,-16.37,-48.07,-48.27,0,*6D
1484017313.44,61030,4.13,72600.8,-16.39,-48.13,-48.55,0,*6B
1484017314.68,61031,4.19,72598.0,-16.37,-48.07,-48.27,0,*64
1484017315.93,61032,4.13,72598.0,-16.37,-47.85,-48.35,0,*61
1484017317.19,61033,4.19,72606.0,-16.39,-48.07,-48.55,0,*6D
1484017318.47,61034,4.13,72596.8,-16.39,-48.13,-48.55,0,*6F
1484017319.74,61035,4.13,72596.5,-16.39,-47.85,-48.13,0,*6C
1484017321.02,61036,4.13,72594.8,-16.39,-47.85,-48.13,0,*6F
1484017322.29,61037,4.13,72598.0,-16.39,-47.85,-48.27,0,*69
1484017323.54,61038,4.13,72598.3,-16.37,-47.79,-48.21,0,*6D
1484017324.76,61039,4.19,72600.3,-16.37,-47.65,-48.07,0,*65
1484017326.01,61040,4.13,72596.3,-16.39,-48.07,-48.21,0,*6A
1484017327.26,61041,4.19,72596.8,-16.37,-47.79,-48.07,0,*67
1484017328.47,61042,4.19,72598.8,-16.37,-47.57,-47.99,0,*60
1484017329.75,61043,4.13,72596.5,-16.39,-48.27,-48.55,0,*68
1484017330.99,61044,4.13,72596.3,-16.37,-47.79,-48.07,0,*62
1484017332.24,61045,4.13,72598.3,-16.37,-47.79,-48.21,0,*67
1484017333.46,61046,4.13,72594.5,-16.37,-47.85,-48.07,0,*63
1484017334.74,61047,4.13,72596.5,-16.39,-47.85,-48.27,0,*6E
1484017335.96,61048,4.13,72592.3,-16.37,-47.85,-48.07,0,*6D
1484017337.21,61049,4.13,72596.3,-16.37,-47.85,-48.27,0,*6E
1484017338.42,61050,4.13,72600.3,-16.37,-47.57,-47.99,0,*63
1484017339.64,61051,4.13,72600.8,-16.37,-47.85,-48.07,0,*65
1484017340.86,61052,4.13,72600.0,-16.37,-47.65,-47.99,0,*60
1484017342.11,61053,4.13,72596.5,-16.35,-47.85,-48.07,0,*65
1484017343.35,61054,4.13,72600.3,-16.35,-47.99,-48.21,0,*6B
1484017344.6,61055,4.13,72598.5,-16.35,-47.65,-48.07,0,*6D
1484017345.83,61056,4.19,72602.0,-16.33,-47.71,-47.99,0,*65
1484017347.08,61057,4.13,72602.8,-16.33,-47.79,-48.21,0,*60
1484017348.32,61058,4.13,72598.8,-16.33,-47.79,-48.21,0,*6F
1484017349.57,61059,4.19,72596.8,-16.35,-47.65,-48.07,0,*61
1484017350.84,61060,4.13,72596.5,-16.35,-47.85,-48.27,0,*67
1484017352.07,61061,4.13,72600.3,-16.33,-47.71,-47.99,0,*61
1484017353.31,61062,4.13,72596.0,-16.35,-47.65,-47.99,0,*61
1484017354.55,61063,4.13,72596.5,-16.33,-47.93,-48.21,0,*63
1484017355.82,61064,4.13,72598.8,-16.33,-47.71,-48.13,0,*69
1484017357.07,61065,4.13,72594.0,-16.33,-47.71,-47.93,0,*6F
1484017358.32,61066,4.13,72596.3,-16.33,-47.85,-48.27,0,*67
1484017359.59,61067,4.19,72598.3,-16.35,-47.79,-48.07,0,*61
1484017360.86,61068,4.13,72596.3,-16.33,-47.93,-48.13,0,*69
1484017362.08,61069,4.13,72598.5,-16.33,-47.99,-48.41,0,*65
1484017363.33,61070,4.19,72594.8,-16.33,-47.99,-48.13,0,*6A
1484017364.57,61071,4.13,72596.3,-16.33,-47.93,-48.41,0,*66
1484017365.84,61072,4.13,72594.8,-16.33,-47.79,-48.13,0,*66
1484017367.08,61073,4.19,72602.8,-16.35,-47.99,-48.21,0,*6E
1484017368.33,61074,4.13,72592.3,-16.35,-48.21,-48.55,0,*66
1484017369.58,61075,4.13,72598.8,-16.33,-47.93,-48.21,0,*64
1484017370.79,61076,4.13,72598.5,-16.33,-48.21,-48.49,0,*6F
1484017372.08,61077,4.13,72596.8,-16.35,-48.35,-48.91,0,*68
1484017373.32,61078,4.13,72596.8,-16.33,-47.85,-48.27,0,*68
1484017374.54,61079,4.19,72600.3,-16.33,-47.99,-48.21,0,*62
1484017375.78,61080,4.13,72592.5,-16.33,-47.93,-48.21,0,*6E
1484017377.03,61081,4.19,72602.8,-16.35,-47.85,-48.21,0,*6E
1484017378.27,61082,4.13,72596.3,-16.35,-47.99,-48.49,0,*6E
1484017379.52,61083,4.13,72596.0,-16.33,-47.79,-48.21,0,*69
1484017380.79,61084,4.13,72596.8,-16.33,-47.79,-48.13,0,*6F
1484017382.02,61085,4.13,72596.8,-16.33,-47.71,-47.99,0,*6B
1484017383.27,61086,4.13,72598.8,-16.33,-47.99,-48.27,0,*64
1484017384.54,61087,4.13,72598.0,-16.33,-47.79,-48.13,0,*6C
1484017385.81,61088,4.13,72598.3,-16.31,-47.79,-47.99,0,*6C
1484017387.08,61089,4.13,72596.0,-16.31,-47.79,-48.21,0,*61
1484017388.32,61090,4.19,72598.5,-16.33,-47.93,-48.21,0,*6F
1484017389.53,61091,4.13,72590.8,-16.33,-47.57,-47.99,0,*6A
1484017390.8,61092,4.13,72590.0,-16.31,-47.71,-47.99,0,*6F
1484017392.06,61093,4.13,72592.3,-16.31,-47.57,-47.93,0,*60
1484017393.28,61094,4.13,72588.0,-16.29,-47.65,-48.07,0,*6D
1484017394.55,61095,4.13,72590.5,-16.31,-48.13,-48.41,0,*69
1484017395.82,61096,4.13,72594.8,-16.31,-47.79,-48.41,0,*69
1484017397.06,61097,4.13,72592.5,-16.31,-47.99,-48.41,0,*66
1484017398.3,61098,4.13,72584.5,-16.31,-47.99,-48.21,0,*6F
1484017399.55,61099,4.19,72596.0,-16.29,-47.71,-48.07,0,*65
1484017400.81,61100,4.13,72594.0,-16.31,-47.93,-48.21,0,*65
1484017402.08,61101,4.13,72594.3,-16.31,-47.79,-47.99,0,*6C
1484017403.3,61102,4.13,72598.0,-16.29,-47.57,-47.99,0,*6A
1484017404.54,61103,4.13,72596.5,-16.31,-47.57,-47.99,0,*62
1484017405.8,61104,4.13,72596.3,-16.31,-47.51,-47.93,0,*69
1484017407.07,61105,4.13,72598.0,-16.31,-47.93,-48.41,0,*66
1484017408.36,61106,4.13,72592.3,-16.31,-47.79,-48.13,0,*66
1484017409.63,61107,4.13,72594.5,-16.29,-47.45,-47.93,0,*66
1484017410.88,61108,4.13,72592.5,-16.29,-47.45,-47.85,0,*6E
1484017412.13,61109,4.13,72592.8,-16.29,-47.45,-47.85,0,*6F
1484017413.35,61110,4.13,72592.3,-16.29,-47.31,-47.85,0,*64
1484017414.61,61111,4.13,72600.0,-16.29,-47.71,-48.13,0,*61
1484017415.86,61112,4.13,72598.3,-16.31,-47.99,-48.41,0,*6A
1484017417.12,61113,4.13,72596.0,-16.29,-47.93,-48.35,0,*6B
1484017418.39,61114,4.13,72592.0,-16.29,-47.93,-48.35,0,*6C
1484017419.68,61115,4.19,72598.3,-16.27,-47.93,-48.35,0,*63
1484017420.95,61116,4.13,72590.5,-16.27,-47.85,-48.35,0,*67
1484017422.23,61117,4.13,72602.5,-16.27,-47.71,-48.13,0,*69
1484017423.48,61118,4.13,72594.3,-16.29,-47.85,-48.13,0,*63
1484017424.72,61119,4.13,72594.3,-16.29,-47.85,-48.35,0,*66
1484017425.94,61120,4.13,72598.5,-16.29,-47.65,-48.07,0,*63
1484017427.21,61121,4.19,72594.0,-16.27,-47.85,-48.13,0,*67
1484017428.48,61122,4.13,72592.3,-16.27,-47.85,-48.35,0,*60
1484017429.76,61123,4.19,72594.8,-16.27,-47.71,-47.93,0,*69
1484017431.05,61124,4.13,72588.5,-16.27,-47.93,-48.35,0,*61
1484017432.29,61125,4.13,72596.5,-16.29,-47.93,-48.41,0,*6D
1484017433.56,61126,4.19,72600.0,-16.29,-47.93,-48.35,0,*6D
1484017434.83,61127,4.13,72596.0,-16.27,-47.85,-48.13,0,*61
1484017436.08,61128,4.13,72596.3,-16.27,-48.07,-48.55,0,*69
1484017437.32,61129,4.19,72602.8,-16.27,-47.85,-48.41,0,*68
1484017438.54,61130,4.13,72600.8,-16.29,-47.85,-48.41,0,*6E
1484017439.79,61131,4.13,72600.3,-16.29,-48.13,-48.55,0,*6A
1484017441.04,61132,4.19,72600.0,-16.29,-47.85,-48.35,0,*6F
1484017442.3,61133,4.13,72596.3,-16.31,-47.93,-48.21,0,*65
1484017443.52,61134,4.19,72602.5,-16.29,-47.85,-48.41,0,*6A
1484017444.75,61135,4.13,72592.0,-16.29,-47.85,-48.07,0,*69
1484017445.99,61136,4.13,72596.3,-16.29,-47.93,-48.41,0,*6F
1484017447.23,61137,4.13,72592.8,-16.29,-47.71,-48.07,0,*60
1484017448.47,61138,4.19,72596.5,-16.29,-47.71,-48.07,0,*6F
1484017449.71,61139,4.19,72598.3,-16.27,-47.65,-48.07,0,*65
1484017450.97,61140,4.13,72590.0,-16.29,-47.71,-48.13,0,*65
1484017452.21,61141,4.13,72596.5,-16.23,-47.57,-47.85,0,*6A
1484017453.45,61142,4.13,72592.5,-16.27,-47.65,-48.07,0,*69
1484017454.72,61143,4.19,72596.8,-16.27,-47.71,-48.07,0,*6D
1484017455.97,61144,4.13,72592.8,-16.27,-47.85,-48.07,0,*61
1484017457.24,61145,4.13,72592.8,-16.27,-47.85,-48.13,0,*65
1484017458.5,61146,4.13,72596.3,-16.27,-47.93,-48.41,0,*66
1484017459.79,61147,4.13,72592.5,-16.27,-47.93,-48.35,0,*64
1484017461.06,61148,4.19,72592.3,-16.27,-47.85,-48.35,0,*6C
1484017462.3,61149,4.13,72596.0,-16.27,-48.07,-48.41,0,*6B
1484017463.55,61150,4.13,72590.3,-16.23,-47.57,-47.85,0,*6A
1484017464.81,61151,4.13,72584.8,-16.27,-47.85,-48.35,0,*64
1484017466.06,61152,4.13,72588.3,-16.27,-48.07,-48.55,0,*64
1484017467.35,61153,4.13,72586.8,-16.27,-47.71,-48.13,0,*69
1484017468.59,61154,4.13,72590.0,-16.27,-47.65,-48.07,0,*6E
1484017469.86,61155,4.19,72596.5,-16.23,-47.79,-48.07,0,*66
1484017471.15,61156,4.19,72592.0,-16.27,-47.71,-48.35,0,*68
1484017472.42,61157,4.13,72590.3,-16.27,-47.85,-48.35,0,*62
1484017473.71,61158,4.13,72592.5,-16.27,-47.93,-48.35,0,*6A
1484017474.98,61159,4.19,72598.5,-16.27,-47.85,-48.13,0,*68
1484017476.24,61160,4.13,72592.5,-16.27,-47.71,-48.07,0,*6C
1484017477.52,61161,4.13,72598.3,-16.27,-47.71,-47.93,0,*6F
1484017478.82,61162,4.13,72596.5,-16.27,-47.93,-48.13,0,*67
1484017480.08,61163,4.13,72592.3,-16.27,-47.51,-47.93,0,*6F
1484017481.32,61164,4.13,72590.8,-16.27,-47.65,-48.07,0,*6D
1484017482.61,61165,4.19,72592.0,-16.27,-47.93,-48.35,0,*64
1484017483.88,61166,4.13,72592.5,-16.27,-47.85,-48.13,0,*64
1484017485.16,61167,4.13,72590.3,-16.27,-47.71,-47.93,0,*69
1484017486.42,61168,4.13,72592.0,-16.27,-47.51,-47.93,0,*64
1484017487.68,61169,4.19,72592.0,-16.23,-47.79,-47.99,0,*61
1484017488.95,61170,4.19,72602.8,-16.23,-47.99,-48.35,0,*6E
1484017490.19,61171,4.13,72590.0,-16.23,-47.85,-48.07,0,*63
1484017491.44,61172,4.19,72598.8,-16.23,-47.65,-48.07,0,*6E
1484017492.73,61173,4.13,72588.5,-16.23,-47.79,-48.27,0,*60
1484017493.99,61174,4.13,72590.3,-16.23,-47.65,-48.27,0,*6A
1484017495.26,61175,4.13,72592.8,-16.23,-47.79,-48.07,0,*64
1484017496.53,61176,4.13,72594.5,-16.27,-47.85,-48.13,0,*65
1484017497.79,61177,4.13,72592.8,-16.27,-47.65,-47.93,0,*6D
1484017499.0,61178,4.19,72590.0,-16.21,-47.57,-47.85,0,*62
1484017500.23,61179,4.13,72592.8,-16.21,-47.57,-47.79,0,*60
1484017501.53,61180,4.13,72592.5,-16.23,-47.79,-48.35,0,*6F
1484017502.79,61181,4.13,72592.3,-16.23,-48.07,-48.35,0,*68
1484017504.03,61182,4.13,72586.8,-16.23,-47.65,-48.07,0,*61
1484017505.3,61183,4.13,72592.3,-16.23,-47.79,-47.99,0,*65
1484017506.57,61184,4.19,72600.8,-16.23,-48.07,-48.27,0,*6E
1484017507.84,61185,4.13,72594.8,-16.23,-47.85,-48.35,0,*69
1484017509.1,61186,4.13,72592.8,-16.23,-47.99,-48.27,0,*64
1484017510.37,61187,4.13,72590.5,-16.23,-47.85,-48.27,0,*68
1484017511.62,61188,4.13,72590.0,-16.23,-47.99,-48.07,0,*68
1484017512.86,61189,4.13,72590.5,-16.21,-48.07,-48.35,0,*62
1484017514.09,61190,4.19,72598.5,-16.21,-47.99,-48.35,0,*62
1484017515.33,61191,4.13,72594.5,-16.21,-47.79,-47.99,0,*64
1484017516.56,61192,4.13,72598.0,-16.23,-47.65,-47.99,0,*68
1484017517.8,61193,4.19,72598.8,-16.21,-47.85,-48.35,0,*6C
1484017519.04,61194,4.13,72592.3,-16.21,-48.07,-48.35,0,*6E
1484017520.27,61195,4.13,72596.0,-16.21,-47.99,-48.27,0,*64
1484017521.51,61196,4.13,72594.5,-16.21,-47.99,-48.35,0,*64
1484017522.72,61197,4.13,72602.3,-16.21,-48.07,-48.49,0,*66
1484017523.96,61198,4.13,72594.0,-16.23,-47.99,-48.49,0,*63
1484017525.22,61199,4.19,72596.3,-16.23,-47.85,-48.35,0,*64
1484017526.43,61200,4.13,72592.8,-16.21,-48.07,-48.49,0,*6B
1484017527.67,61201,4.13,72596.8,-16.21,-47.99,-48.27,0,*6A
1484017528.91,61202,4.13,72596.5,-16.21,-48.07,-48.27,0,*61
1484017530.15,61203,4.13,72590.8,-16.21,-47.85,-48.27,0,*65
1484017531.38,61204,4.13,72596.3,-16.21,-47.99,-48.27,0,*6F
1484017532.6,61205,4.13,72600.3,-16.21,-47.99,-48.07,0,*6C
1484017533.82,61206,4.13,72598.3,-16.21,-47.99,-48.07,0,*6F
1484017535.06,61207,4.13,72594.0,-16.21,-47.79,-48.07,0,*60
1484017536.31,61208,4.19,72596.8,-16.19,-47.85,-48.27,0,*65
1484017537.54,61209,4.13,72588.3,-16.21,-47.99,-48.35,0,*61
1484017538.78,61210,4.13,72588.5,-16.21,-47.85,-48.27,0,*67
1484017540.02,61211,4.13,72594.5,-16.21,-47.99,-48.35,0,*68
1484017541.25,61212,4.13,72590.3,-16.21,-47.99,-48.27,0,*68
1484017542.49,61213,4.13,72592.5,-16.21,-47.85,-48.27,0,*64
1484017543.7,61214,4.13,72588.8,-16.21,-47.65,-47.99,0,*67
1484017544.94,61215,4.13,72592.0,-16.21,-47.79,-48.07,0,*63
1484017546.18,61216,4.13,72594.5,-16.21,-47.85,-48.27,0,*61
1484017547.41,61217,4.13,72588.5,-16.21,-47.99,-48.27,0,*6D
1484017548.62,61218,4.13,72594.0,-16.21,-48.07,-48.49,0,*62
1484017549.89,61219,4.13,72588.0,-16.21,-48.13,-48.69,0,*64
1484017551.1,61220,4.19,72594.8,-16.21,-48.07,-48.49,0,*69
1484017552.34,61221,4.13,72586.5,-16.21,-47.85,-48.27,0,*65
1484017553.57,61222,4.13,72588.0,-16.21,-47.99,-48.35,0,*68
1484017554.82,61223,4.13,72588.8,-16.21,-47.79,-48.07,0,*66
1484017556.03,61224,4.13,72590.5,-16.21,-47.85,-48.07,0,*62
1484017557.24,61225,4.13,72586.5,-16.21,-47.65,-48.07,0,*6D
1484017558.48,61226,4.13,72584.5,-16.21,-47.79,-47.99,0,*6B
1484017559.71,61227,4.13,72588.0,-16.21,-47.99,-48.35,0,*6D
1484017560.95,61228,4.13,72592.0,-16.21,-47.85,-48.27,0,*6C
1484017562.21,61229,4.13,72592.8,-16.21,-47.79,-48.35,0,*6D
1484017563.42,61230,4.13,72584.5,-16.21,-47.99,-48.49,0,*60
1484017564.66,61231,4.19,72590.5,-16.21,-47.85,-48.35,0,*67
1484017565.91,61232,4.19,72594.3,-16.19,-47.99,-48.35,0,*62
1484017567.11,61233,4.13,72592.5,-16.21,-47.99,-48.49,0,*63
1484017568.38,61234,4.13,72594.5,-16.23,-47.99,-48.35,0,*6D
1484017569.59,61235,4.13,72592.3,-16.21,-47.99,-48.55,0,*68
1484017570.81,61236,4.13,72590.0,-16.21,-48.07,-48.55,0,*63
1484017572.06,61237,4.19,72592.0,-16.21,-48.07,-48.69,0,*6D
1484017573.3,61238,4.13,72588.8,-16.21,-48.07,-48.69,0,*62
1484017574.51,61239,4.13,72590.3,-16.21,-48.07,-48.49,0,*61
1484017575.73,61240,4.19,72590.8,-16.21,-48.07,-48.55,0,*62
1484017576.98,61241,4.13,72592.3,-16.21,-48.13,-48.55,0,*66
1484017578.24,61242,4.13,72590.0,-16.21,-48.27,-48.77,0,*62
1484017579.48,61243,4.13,72590.8,-16.21,-48.07,-48.69,0,*6E
1484017580.72,61244,4.13,72588.3,-16.21,-48.13,-48.55,0,*63
1484017581.94,61245,4.13,72588.5,-16.21,-48.07,-48.55,0,*67
1484017583.19,61246,4.13,72588.5,-16.21,-48.07,-48.69,0,*6B
1484017584.45,61247,4.13,72594.0,-16.21,-47.79,-48.35,0,*65
1484017585.69,61248,4.13,72592.8,-16.21,-48.07,-48.69,0,*65
1484017586.95,61249,4.13,72588.8,-16.21,-48.13,-48.69,0,*61
1484017588.25,61250,4.13,72592.5,-16.23,-48.13,-48.69,0,*6B
1484017589.54,61251,4.19,72598.3,-16.23,-48.27,-48.69,0,*6D
1484017590.83,61252,4.13,72592.3,-16.23,-48.13,-48.77,0,*66
1484017592.08,61253,4.13,72592.0,-16.23,-48.07,-48.55,0,*62
1484017593.35,61254,4.13,72596.5,-16.27,-48.21,-48.77,0,*65
1484017594.65,61255,4.13,72592.0,-16.23,-48.13,-48.69,0,*6E
1484017595.89,61256,4.13,72588.0,-16.23,-47.85,-48.49,0,*6F
1484017597.16,61257,4.13,72590.8,-16.23,-48.07,-48.69,0,*69
1484017598.4,61258,4.19,72594.0,-16.23,-47.99,-48.55,0,*61
1484017599.67,61259,4.13,72592.5,-16.23,-48.27,-48.83,0,*61
1484017600.91,61260,4.13,72594.3,-16.23,-47.99,-48.55,0,*6A
1484017602.15,61261,4.13,72596.5,-16.23,-47.85,-48.49,0,*6B
1484017603.42,61262,4.13,72592.0,-16.27,-47.93,-48.63,0,*63
1484017604.67,61263,4.13,72594.3,-16.23,-48.07,-48.55,0,*61
1484017605.97,61264,4.13,72594.0,-16.27,-48.13,-48.77,0,*67
1484017607.2,61265,4.13,72596.5,-16.27,-48.21,-48.97,0,*69
1484017608.44,61266,4.13,72594.8,-16.27,-48.21,-48.97,0,*6A
1484017609.69,61267,4.13,72594.8,-16.23,-48.07,-48.55,0,*65
1484017610.96,61268,4.13,72594.3,-16.27,-48.07,-48.77,0,*6E
1484017612.23,61269,4.13,72592.3,-16.23,-48.07,-48.69,0,*64
1484017613.47,61270,4.13,72596.5,-16.27,-48.21,-48.97,0,*6D
1484017614.72,61271,4.13,72596.8,-16.29,-48.13,-48.63,0,*68
1484017615.95,61272,4.13,72590.3,-16.29,-47.71,-48.41,0,*60
1484017617.2,61273,4.13,72598.0,-16.27,-48.07,-48.63,0,*61
1484017618.47,61274,4.13,72590.0,-16.27,-47.93,-48.63,0,*64
1484017619.69,61275,4.13,72590.3,-16.29,-48.07,-48.63,0,*69
1484017620.93,61276,4.13,72592.3,-16.29,-47.65,-48.13,0,*66
1484017622.17,61277,4.13,72592.0,-16.29,-47.71,-48.41,0,*65
1484017623.41,61278,4.13,72592.0,-16.29,-47.93,-48.55,0,*63
1484017624.68,61279,4.13,72592.3,-16.27,-47.93,-48.63,0,*69
1484017625.95,61280,4.13,72594.3,-16.27,-47.93,-48.41,0,*6F
1484017627.18,61281,4.13,72596.0,-16.29,-47.71,-48.41,0,*6C
1484017628.42,61282,4.13,72596.0,-16.29,-47.71,-48.41,0,*6F
1484017629.68,61283,4.13,72590.3,-16.27,-47.93,-48.63,0,*6C
1484017630.95,61284,4.13,72594.3,-16.29,-47.93,-48.77,0,*60
1484017632.2,61285,4.13,72590.3,-16.29,-47.93,-48.55,0,*61
1484017633.45,61286,4.13,72592.8,-16.29,-47.93,-48.55,0,*62
1484017634.69,61287,4.13,72594.0,-16.29,-47.93,-48.55,0,*63
1484017635.94,61288,4.13,72594.8,-16.31,-47.99,-48.63,0,*6A
1484017637.19,61289,4.19,72600.5,-16.29,-48.07,-48.77,0,*6F
1484017638.44,61290,4.13,72598.3,-16.29,-48.07,-48.77,0,*67
1484017639.71,61291,4.13,72594.8,-16.31,-47.99,-48.69,0,*68
1484017640.95,61292,4.13,72594.8,-16.29,-47.93,-48.83,0,*6C
1484017642.17,61293,4.13,72592.0,-16.29,-48.07,-48.83,0,*6F
1484017643.43,61294,4.13,72592.8,-16.31,-47.79,-48.49,0,*61
1484017644.68,61295,4.13,72598.3,-16.29,-47.93,-48.63,0,*65
1484017645.9,61296,4.13,72592.8,-16.29,-47.85,-48.55,0,*64
1484017647.13,61297,4.13,72592.8,-16.29,-47.85,-48.55,0,*65
1484017648.34,61298,4.13,72592.3,-16.29,-47.65,-48.49,0,*69
1484017649.61,61299,4.13,72590.8,-16.31,-48.13,-48.83,0,*69
1484017650.88,61300,4.13,72594.5,-16.31,-47.79,-48.63,0,*65
1484017652.15,61301,4.13,72596.3,-16.29,-47.93,-48.77,0,*6C
1484017653.39,61302,4.19,72594.5,-16.29,-47.51,-48.35,0,*67
1484017654.63,61303,4.13,72594.8,-16.31,-47.99,-48.63,0,*68
1484017655.93,61304,4.13,72592.8,-16.31,-47.79,-48.69,0,*6B
1484017657.19,61305,4.13,72588.8,-16.31,-47.93,-48.49,0,*6C
1484017658.43,61306,4.13,72594.5,-16.29,-47.65,-48.35,0,*64
1484017659.73,61307,4.13,72592.3,-16.31,-47.93,-48.69,0,*6C
1484017661.0,61308,4.13,72590.5,-16.31,-47.93,-48.63,0,*69
1484017662.27,61309,4.13,72592.3,-16.31,-47.93,-48.83,0,*66
1484017663.51,61310,4.13,72596.5,-16.29,-47.99,-48.69,0,*69
1484017664.73,61311,4.13,72588.5,-16.29,-47.85,-48.63,0,*6F
1484017666.02,61312,4.13,72590.3,-16.31,-47.93,-48.91,0,*6F
1484017667.27,61313,4.13,72588.3,-16.31,-47.99,-48.83,0,*67
1484017668.54,61314,4.13,72594.8,-16.31,-47.99,-48.69,0,*64
1484017669.81,61315,4.13,72592.5,-16.31,-47.99,-48.69,0,*65
1484017671.03,61316,4.13,72588.8,-16.29,-47.85,-48.63,0,*68
1484017672.27,61317,4.13,72590.8,-16.33,-47.79,-48.49,0,*69
1484017673.53,61318,4.13,72592.0,-16.33,-47.71,-48.69,0,*6C
1484017674.8,61319,4.19,72594.3,-16.33,-47.93,-48.69,0,*61
1484017676.02,61320,4.13,72590.5,-16.33,-47.99,-48.83,0,*65
1484017677.31,61321,4.13,72584.5,-16.31,-48.13,-48.91,0,*68
1484017678.56,61322,4.13,72590.3,-16.33,-47.79,-48.63,0,*67
1484017679.8,61323,4.13,72590.8,-16.33,-47.79,-48.49,0,*6E
1484017681.04,61324,4.13,72594.0,-16.33,-47.79,-48.83,0,*6F
1484017682.33,61325,4.13,72590.5,-16.31,-47.93,-48.69,0,*6C
1484017683.61,61326,4.13,72590.5,-16.35,-47.85,-48.77,0,*63
1484017684.88,61327,4.13,72596.0,-16.33,-47.79,-48.69,0,*68
1484017686.12,61328,4.13,72594.3,-16.33,-47.79,-48.63,0,*6D
1484017687.33,61329,4.13,72590.3,-16.33,-47.57,-48.49,0,*68
1484017688.61,61330,4.13,72588.3,-16.35,-47.99,-48.77,0,*69
1484017689.88,61331,4.13,72594.5,-16.35,-47.99,-48.77,0,*68
1484017691.14,61332,4.13,72596.0,-16.35,-47.99,-48.91,0,*63
1484017692.41,61333,4.13,72590.3,-16.35,-47.99,-48.91,0,*62
1484017693.69,61334,4.19,72596.5,-16.35,-47.79,-48.55,0,*63
1484017694.98,61335,4.13,72594.3,-16.35,-47.45,-48.27,0,*68
1484017696.26,61336,4.13,72590.8,-16.35,-47.79,-48.55,0,*61
1484017697.5,61337,4.13,72592.5,-16.35,-47.65,-48.49,0,*60
1484017698.77,61338,4.13,72590.3,-16.35,-47.79,-48.55,0,*6F
1484017700.07,61339,4.13,72590.8,-16.35,-47.79,-48.69,0,*61